GFSNGP_700_rhum_318.txt.gz
RH
58 66 87 91 90 96 100 93 100 87 98 91 96 86 85 100 99 96 96 100 97 96 98 100 100 100 97 88 69 64 60 66 70 64 51 37 27 22 20 20 21 32 54 58
94 93 87 87 91 92 87 86 83 81 93 90 90 83 90 75 77 99 100 98 100 100 100 100 99 100 88 76 77 66 62 68 65 54 40 32 28 25 27 29 37 50 66 66
92 92 95 93 69 65 63 64 71 88 90 82 66 61 60 75 86 83 82 100 100 100 100 100 100 86 70 68 62 63 64 65 60 48 35 32 33 36 37 40 46 62 76 74
97 100 97 57 60 64 67 70 70 77 83 64 58 53 71 76 80 89 96 100 100 100 100 99 87 76 64 64 64 64 68 68 51 39 34 34 40 46 47 51 48 61 80 77
100 93 76 88 80 92 97 90 86 77 69 71 70 70 72 78 88 92 97 100 100 100 100 100 96 79 67 69 71 74 69 54 43 39 34 36 44 50 54 56 48 52 80 84
96 100 94 69 76 93 90 89 71 67 72 72 73 77 82 87 93 94 95 96 98 100 99 93 82 77 68 69 70 66 56 49 44 41 39 39 47 54 59 59 49 47 72 91
75 88 90 83 73 82 94 82 86 86 87 92 87 89 84 88 94 96 96 98 97 88 77 75 79 79 75 74 75 71 64 54 48 46 44 48 51 61 64 62 55 46 57 87
70 74 91 76 88 94 95 99 99 98 95 90 92 89 87 90 88 88 88 90 92 80 74 74 76 79 77 76 77 72 66 58 53 49 51 55 58 62 64 63 56 48 46 71
84 78 73 74 83 96 96 91 97 98 93 90 84 81 81 80 81 82 81 82 80 75 71 73 77 80 79 81 78 73 67 60 56 55 56 58 61 63 61 60 56 50 46 58
82 74 85 89 91 88 83 83 87 92 89 91 85 82 82 82 81 79 80 80 78 74 71 70 75 79 83 84 84 78 70 63 62 58 58 60 63 66 62 59 55 50 48 52
94 81 82 80 80 84 87 87 86 86 89 88 88 82 85 81 78 77 77 76 78 78 77 73 74 78 84 89 86 80 73 68 67 64 64 62 63 64 61 58 58 52 50 48
85 77 73 63 62 63 65 65 69 70 66 69 75 74 75 73 74 74 73 74 75 79 78 74 74 75 79 86 84 76 70 72 72 70 68 66 62 58 61 59 57 57 57 56
48 40 36 34 39 43 45 47 49 52 52 53 53 62 62 64 64 67 67 68 71 72 72 70 71 72 80 85 83 78 77 78 76 76 71 66 62 60 52 47 52 55 57 54
36 36 30 35 33 35 40 43 46 48 51 56 58 60 65 64 64 66 65 68 68 69 67 68 69 67 77 80 77 77 79 79 77 74 70 66 63 59 55 51 43 39 49 52
82 83 80 74 68 67 63 54 46 44 47 48 55 56 61 64 65 64 68 72 74 72 69 69 68 67 82 78 74 73 73 73 72 70 68 63 60 58 54 50 48 50 52 54
85 87 92 91 89 88 88 85 85 79 82 76 64 58 58 58 58 59 63 69 72 70 71 71 69 74 78 76 75 72 71 70 68 66 63 60 57 54 51 47 45 52 61 71
94 83 94 90 94 92 97 100 100 98 96 94 93 95 91 74 58 53 56 62 66 62 60 63 69 81 81 80 78 76 74 70 69 65 63 62 58 52 49 45 43 50 62 94
97 94 96 96 95 94 88 93 96 98 100 99 100 100 99 100 96 84 66 66 62 59 60 64 67 71 80 80 84 81 76 73 70 67 64 62 57 53 48 46 44 47 62 92
100 100 100 100 100 100 98 96 100 98 95 100 100 99 100 100 100 100 99 77 58 57 60 68 64 64 70 77 84 83 80 74 72 70 69 68 62 59 54 47 44 46 63 93
100 100 100 100 100 100 100 100 100 99 99 100 100 100 100 100 100 100 100 96 85 69 69 66 62 59 59 65 78 87 86 85 83 78 73 70 64 58 57 51 46 44 59 97
100 100 100 100 100 100 100 100 100 100 100 100 100 100 100 99 100 100 100 96 97 100 71 63 64 61 57 57 65 78 90 91 93 86 76 74 70 65 60 53 46 43 53 92
100 100 100 100 99 97 100 100 100 100 100 100 100 100 100 96 99 99 100 99 100 100 97 70 67 68 63 60 61 68 90 97 96 88 80 83 80 68 62 55 46 43 50 82
100 100 100 100 100 100 100 100 100 100 100 100 100 100 100 100 100 99 93 100 98 99 100 99 78 70 70 85 89 66 68 81 84 87 86 87 82 72 64 58 48 43 47 68
100 100 100 100 100 100 98 97 100 100 100 100 100 100 100 100 93 100 100 100 100 100 100 100 100 78 91 99 73 58 56 60 69 72 78 84 81 75 68 60 52 44 44 54
100 100 100 100 100 100 98 100 100 100 100 95 94 100 100 100 100 99 100 100 100 100 100 100 100 100 87 76 70 65 62 59 57 62 75 79 84 78 70 63 54 44 44 50
100 100 100 100 100 100 100 100 99 97 100 98 100 100 100 100 100 100 100 100 100 100 100 100 100 100 100 84 80 72 65 62 60 56 59 72 77 77 70 64 56 49 44 49
100 100 100 100 100 100 100 100 100 96 96 98 93 94 99 100 100 100 100 100 100 100 100 100 100 100 100 96 89 86 75 68 63 59 54 64 74 76 70 64 58 53 46 47

GFSNGP_700_rhum_321.txt.gz
RH
50 46 45 46 48 54 84 84 89 68 79 76 84 91 91 80 85 87 82 76 78 80 89 94 96 94 92 94 100 98 100 97 69 59 54 37 38 46 49 48 39 28 22 19
75 66 64 63 73 92 88 89 88 91 100 93 87 83 85 99 94 68 67 67 82 91 89 82 75 86 95 100 100 100 98 77 69 57 50 52 55 53 46 34 26 23 25 27
96 84 88 92 75 70 72 75 76 79 73 76 80 87 83 74 64 61 58 62 74 82 89 97 100 100 98 97 100 99 83 72 66 65 63 62 56 45 33 27 24 24 30 36
95 98 96 60 70 67 67 68 70 74 82 85 82 75 68 64 59 58 61 66 75 86 96 100 100 100 97 97 97 86 76 70 73 73 69 59 46 37 32 28 25 25 33 43
97 93 73 81 79 71 76 71 72 68 68 71 74 73 71 70 71 70 72 76 80 85 90 96 100 100 97 97 100 92 83 77 76 69 60 52 46 39 35 31 28 29 41 49
99 100 99 69 67 68 68 77 60 74 85 83 73 78 62 74 75 78 80 80 84 90 91 94 100 100 96 93 83 84 82 78 77 74 68 61 51 43 38 34 30 36 46 55
69 98 84 74 77 82 89 79 90 88 80 84 83 84 72 72 74 79 80 82 83 84 86 92 95 95 90 81 77 81 78 75 76 76 71 64 56 49 42 38 39 45 53 54
86 92 87 70 74 80 79 80 87 88 90 88 87 86 85 81 77 77 76 76 80 80 79 80 81 79 75 73 77 75 71 68 71 74 74 68 60 51 49 48 47 50 54 52
84 73 74 81 78 85 86 83 82 79 80 84 81 79 80 76 77 76 76 78 80 81 78 77 79 78 69 69 72 73 67 66 71 77 77 71 62 55 53 53 54 54 55 52
92 74 84 82 72 71 72 67 66 64 62 63 62 63 64 67 66 67 69 72 75 76 74 72 75 76 74 75 78 76 70 70 75 78 79 72 66 62 57 57 59 59 56 51
76 61 63 48 43 42 39 36 37 40 43 45 47 46 50 49 50 54 56 59 65 66 69 69 73 71 73 77 82 76 72 70 73 75 74 70 69 65 62 62 62 59 56 53
49 39 36 29 35 35 33 31 33 39 36 39 45 51 54 51 53 56 56 57 58 60 62 62 65 65 67 76 80 76 69 69 73 72 74 72 67 62 68 64 63 60 57 56
75 72 66 68 72 80 79 80 76 68 61 56 49 48 46 45 44 52 55 58 62 64 63 64 63 62 69 76 77 74 70 71 72 75 76 73 71 67 58 57 59 55 53 55
91 91 73 84 79 79 88 88 89 87 89 94 96 93 86 71 60 56 54 59 62 66 68 71 70 65 73 76 75 71 69 70 71 71 71 69 68 65 60 54 48 46 48 52
93 95 95 91 87 90 96 96 94 92 97 96 100 100 100 99 93 89 80 67 62 60 60 64 62 60 74 79 77 72 71 70 72 71 69 68 66 63 60 55 52 46 43 46
88 92 100 98 95 91 96 98 100 95 98 96 95 99 100 100 99 96 97 100 96 68 62 61 57 63 67 70 74 74 74 75 74 71 67 65 63 61 57 53 51 46 43 44
100 89 98 93 99 95 92 95 96 92 92 94 96 100 100 99 95 95 98 100 98 92 78 60 60 65 64 65 70 72 76 77 80 76 73 70 68 64 62 58 53 45 43 46
100 100 100 98 96 96 94 99 100 100 100 100 100 98 97 100 100 100 100 100 99 96 98 94 71 63 62 62 62 62 73 80 82 79 76 73 74 70 64 59 53 49 43 45
100 100 100 100 100 100 100 100 100 100 100 100 100 100 100 100 100 100 100 99 97 98 100 100 86 64 62 63 62 59 64 78 85 84 81 78 75 74 71 68 59 52 46 43
100 100 100 100 100 100 100 100 100 98 100 100 100 100 100 99 100 100 100 96 98 100 100 100 93 78 65 68 65 62 62 68 78 83 84 84 84 77 72 66 62 56 48 45
100 100 100 100 100 100 100 100 100 96 97 100 100 100 100 95 100 100 99 95 100 100 99 96 96 97 67 65 66 65 64 66 78 88 93 95 95 89 76 69 65 60 48 44
100 100 100 100 100 100 100 100 100 100 100 100 100 100 100 95 98 97 96 100 95 100 100 100 100 100 92 73 71 69 66 70 77 96 98 95 88 84 81 75 69 62 50 45
100 100 100 100 100 100 100 100 100 100 100 100 100 100 100 98 100 100 93 99 99 100 100 100 100 100 100 98 89 91 86 69 71 85 95 90 86 88 87 79 71 63 51 45
100 100 100 100 100 100 100 100 100 100 100 100 100 100 100 99 94 100 100 100 100 100 100 100 100 100 100 100 100 100 88 79 71 64 68 76 79 88 85 78 72 63 53 45
100 100 100 100 100 100 100 100 100 100 91 88 93 99 100 100 100 100 100 100 100 100 100 100 100 100 100 96 96 90 84 74 70 69 70 66 73 85 79 75 69 61 55 46
100 100 100 100 100 100 100 100 100 100 100 100 99 99 99 100 100 100 100 100 100 100 100 100 100 100 100 100 98 95 89 84 74 69 65 57 55 69 73 73 68 61 55 46
94 95 88 90 90 96 100 100 100 99 100 100 99 100 100 100 100 100 100 100 100 100 100 100 100 100 100 100 100 100 98 94 84 73 66 60 51 59 72 71 68 62 54 48

GFSNGP_700_rhum_327.txt.gz
RH
82 80 90 92 98 97 95 93 97 75 87 86 92 95 97 96 96 93 93 83 75 72 76 82 81 73 62 51 46 44 42 43 49 58 68 74 81 86 88 95 100 96 79 56
91 90 94 93 90 100 97 95 97 97 95 91 90 91 91 96 83 64 66 73 79 79 74 66 60 54 48 43 40 41 45 51 60 69 78 85 91 93 96 99 87 73 60 50
92 96 92 89 77 73 78 83 86 90 75 89 96 93 70 60 50 46 58 70 71 68 62 56 49 48 44 48 53 55 56 62 68 76 78 85 91 97 98 90 77 68 60 55
94 97 96 66 70 64 56 49 50 53 68 76 64 55 48 44 41 53 64 67 60 52 47 44 43 46 51 58 61 61 61 64 73 79 81 87 94 96 100 100 88 70 63 58
96 96 79 81 79 84 80 72 67 57 57 58 54 50 49 51 54 50 50 49 49 50 52 54 56 64 67 65 66 64 61 66 74 80 83 88 92 95 95 85 76 70 65 60
98 97 96 76 58 64 74 75 62 56 53 55 58 69 47 47 45 46 48 51 53 56 58 60 63 70 70 67 67 63 68 70 74 78 85 88 90 90 84 80 71 68 62 60
99 97 92 89 89 83 78 66 65 69 68 54 49 50 38 36 32 29 28 30 33 37 42 45 52 59 60 61 59 68 72 73 72 73 76 79 84 83 79 76 72 67 62 54
91 97 86 76 65 57 63 62 52 45 41 32 30 27 26 27 28 28 28 26 26 25 25 27 31 37 43 45 53 63 69 69 70 73 74 72 73 73 72 70 64 58 55 48
71 58 56 56 50 48 38 33 28 33 42 49 51 52 54 53 56 58 58 58 58 51 42 32 29 33 36 38 44 48 53 59 64 68 68 70 71 70 69 69 67 62 62 63
69 36 34 35 31 37 49 56 58 60 64 66 63 66 64 68 70 73 74 73 74 73 69 65 57 40 35 38 44 48 49 48 52 57 63 68 72 72 71 71 72 70 71 72
34 33 51 47 58 66 64 66 67 71 71 70 73 72 78 78 79 82 84 85 86 83 81 79 81 74 58 43 46 49 51 49 50 52 55 59 64 69 72 74 74 70 71 77
72 73 74 52 70 75 78 72 77 75 66 71 76 73 74 69 75 80 84 88 90 90 91 85 84 84 85 76 55 50 48 49 54 58 57 59 60 63 75 74 74 75 74 78
94 96 84 79 84 88 87 89 92 89 86 85 86 88 85 80 79 81 80 84 90 91 89 88 86 83 86 91 88 62 48 48 51 60 62 64 65 64 62 72 81 74 75 78
99 100 88 92 86 87 91 91 92 92 96 100 98 99 98 96 90 90 88 94 98 99 96 94 91 86 92 99 97 88 72 54 53 53 58 66 71 72 72 69 67 76 80 76
100 100 98 99 96 98 100 100 96 98 100 100 100 100 100 100 96 94 92 95 99 98 98 100 98 90 100 100 93 91 92 69 58 61 62 65 69 73 75 74 69 67 68 70
97 99 100 99 95 96 98 100 100 95 96 96 97 100 100 100 98 96 95 96 93 89 97 100 100 100 100 100 93 94 91 88 62 58 59 65 73 79 79 77 75 72 67 67
96 92 100 100 100 100 100 100 100 100 100 100 100 100 100 97 93 93 91 91 89 85 87 92 99 100 100 98 100 100 98 96 73 65 65 65 69 80 84 83 80 74 68 69
100 100 100 100 97 96 95 100 100 100 100 100 100 100 99 100 99 98 94 95 91 92 97 100 97 90 96 100 100 100 100 100 78 69 69 66 69 79 89 89 82 74 70 67
100 100 100 100 100 100 100 100 100 100 100 100 100 100 100 100 100 97 96 94 92 98 94 96 96 98 99 98 100 100 100 100 79 71 73 71 70 77 93 94 85 77 74 66
100 100 100 100 100 100 100 100 100 100 100 100 100 100 100 99 100 95 94 88 91 100 93 95 100 100 100 100 100 100 100 98 82 73 74 69 71 78 94 92 89 82 80 71
100 100 100 100 100 100 100 100 100 100 100 100 100 100 100 99 100 100 100 98 94 100 100 99 100 99 100 100 100 100 100 100 84 75 72 70 72 73 85 91 93 91 83 71
100 100 100 100 98 100 100 100 100 100 100 100 100 100 100 96 97 100 100 100 99 100 100 100 100 100 100 100 100 100 100 100 93 88 82 80 78 78 87 92 91 90 82 75
100 100 97 100 100 100 100 100 98 100 100 100 99 97 99 100 100 100 98 100 100 100 100 99 97 99 100 100 100 100 100 100 100 100 100 100 97 85 79 86 88 84 79 72
95 96 93 95 92 94 90 92 97 100 100 100 100 100 100 95 93 100 100 100 100 100 100 100 100 100 100 100 100 100 100 100 100 100 100 100 96 88 66 58 65 72 68 66
71 76 85 92 99 99 100 96 98 97 97 95 100 99 100 100 100 100 100 100 100 100 100 100 100 100 100 99 96 97 100 100 100 100 99 95 84 69 60 53 51 60 62 64
79 86 98 100 100 100 100 99 100 100 96 96 98 100 100 100 100 100 100 100 100 100 100 99 100 100 98 98 100 100 100 100 100 100 99 97 90 74 63 53 49 56 62 64
76 64 60 82 93 98 100 100 99 98 100 95 100 100 100 100 100 100 100 100 100 100 100 100 100 100 100 100 100 100 100 100 100 100 100 99 91 75 63 54 46 54 63 62

GFSNGP_700_rhum_333.txt.gz
RH
85 85 88 88 90 94 94 86 95 72 76 75 79 88 91 97 97 92 73 62 69 89 98 98 97 97 90 70 48 41 38 38 46 52 55 52 48 43 39 35 35 42 42 42
93 93 95 89 87 93 98 100 97 99 92 97 97 98 96 97 99 98 99 100 99 97 97 96 79 55 48 43 38 32 28 26 30 35 40 38 37 40 42 48 50 48 47 52
92 95 94 87 72 73 76 82 96 100 91 100 99 100 100 100 98 96 95 96 93 76 62 54 47 42 35 26 19 17 18 23 28 33 36 40 44 44 47 53 56 54 50 53
96 96 95 67 71 70 64 65 75 94 96 100 100 100 100 98 86 74 67 62 55 45 37 30 24 18 15 15 15 15 16 17 19 25 29 35 41 44 50 58 59 56 53 53
96 97 82 84 82 88 89 78 75 67 62 67 66 64 66 64 64 59 50 38 29 20 16 17 20 25 28 29 30 29 28 27 22 20 19 21 23 32 45 52 54 56 57 55
97 96 95 96 86 85 84 76 75 71 68 66 64 62 44 37 28 24 21 21 27 36 38 37 40 42 41 41 43 43 46 46 44 38 30 24 24 26 32 40 46 52 55 59
98 97 98 98 100 100 91 87 81 72 62 54 50 39 27 21 26 35 39 42 45 44 41 43 49 51 47 51 50 58 58 56 55 54 51 42 30 27 30 32 36 42 50 56
98 98 98 99 93 87 79 68 61 47 38 35 37 37 43 43 44 43 42 44 48 45 44 45 46 48 46 44 55 56 60 63 66 66 64 59 50 35 30 34 37 38 43 49
98 99 96 86 64 48 43 44 54 64 68 76 62 54 59 60 64 66 69 68 69 65 60 61 63 62 55 55 53 51 51 58 69 74 73 70 65 56 39 36 40 41 44 44
44 47 56 59 76 90 100 98 100 100 99 100 94 90 83 85 84 82 84 83 84 81 76 74 77 75 70 65 62 58 54 56 64 73 77 77 78 72 57 41 42 45 46 45
79 82 83 80 90 96 98 99 99 100 100 100 100 98 100 94 93 93 92 93 94 91 89 86 87 84 85 81 76 67 61 60 63 72 81 84 85 83 76 55 47 44 48 53
100 98 98 86 94 100 97 97 100 99 95 100 100 98 99 93 97 97 96 97 96 95 93 89 89 89 90 88 84 77 70 65 68 73 81 85 87 90 89 71 51 50 52 54
97 92 87 89 88 97 95 95 96 96 98 94 97 100 97 94 95 96 97 97 99 96 96 93 91 86 86 87 85 82 75 70 73 80 86 88 91 93 87 84 60 51 54 58
89 86 79 90 95 100 100 96 94 93 91 92 94 98 100 100 100 100 100 100 100 100 97 97 93 88 95 98 95 87 79 74 74 76 85 96 100 99 93 86 60 55 63 59
77 97 98 89 81 84 92 94 88 86 87 84 89 90 91 92 90 91 99 100 100 100 97 100 99 97 100 100 97 92 83 78 84 90 96 97 92 93 96 91 62 53 58 64
80 100 100 100 94 96 95 97 100 99 100 100 99 100 100 100 96 92 97 100 100 98 100 100 100 100 100 100 100 96 90 88 88 87 97 100 100 99 97 92 61 56 57 62
77 72 79 80 87 91 96 99 100 100 100 100 100 100 100 100 99 96 95 100 100 96 99 96 98 93 96 100 99 95 94 96 100 100 100 99 100 100 100 91 66 61 58 66
61 63 67 75 76 74 76 81 87 91 98 100 100 100 100 100 100 100 100 100 98 91 94 100 92 88 98 93 92 96 99 100 100 100 100 100 100 100 99 80 68 67 63 69
63 71 76 83 93 95 97 95 96 96 96 97 99 99 100 100 100 100 100 100 100 100 100 99 98 100 100 99 98 99 99 100 100 100 100 100 100 100 96 79 73 69 64 66
69 73 71 66 80 99 95 94 95 94 98 100 99 99 98 100 100 100 100 100 100 100 100 100 100 100 100 100 100 100 100 100 100 100 100 100 100 100 90 77 72 67 64 66
64 58 57 60 79 95 99 100 97 95 100 100 98 98 98 99 100 100 99 95 97 98 100 100 100 100 100 98 100 100 100 98 100 100 100 100 99 94 86 79 72 70 66 69
60 56 60 71 86 92 100 99 99 99 96 93 99 97 96 96 92 90 100 98 97 100 100 98 100 100 98 100 98 87 100 100 92 99 100 100 100 99 90 82 77 74 73 78
66 72 78 86 90 97 100 98 100 98 100 100 100 99 96 99 100 92 85 97 99 100 100 97 100 100 98 92 100 100 100 99 97 100 100 100 97 96 100 100 99 92 78 66
86 93 90 90 95 96 89 90 95 98 100 100 100 100 95 90 94 100 100 100 100 100 100 100 100 100 94 88 87 97 98 100 100 100 98 100 99 100 100 100 100 90 70 55
86 84 84 85 89 87 86 89 91 92 88 94 91 95 100 100 100 100 100 100 100 100 100 100 100 100 100 100 100 100 98 98 98 97 96 96 95 96 98 97 93 77 61 50
71 69 82 89 89 91 89 90 92 89 73 80 87 97 100 100 100 100 100 100 100 100 100 100 100 100 100 100 100 100 97 96 94 92 94 95 93 93 91 91 85 67 54 47
72 71 75 82 86 91 96 96 89 86 80 71 92 100 100 100 100 100 100 100 100 100 100 100 100 100 100 100 100 100 100 99 98 98 99 95 94 92 91 89 78 62 48 47

GFSNGP_700_rhum_336.txt.gz
RH
86 86 86 90 86 82 87 83 94 70 77 80 83 83 88 90 94 96 96 96 92 88 81 71 67 67 74 85 95 96 96 92 80 60 44 36 26 17 17 18 22 28 30 29
96 93 96 96 100 98 96 96 96 97 94 96 97 96 97 98 98 97 99 99 99 94 86 85 89 96 98 98 96 91 71 50 41 29 15 13 14 15 16 19 22 24 27 30
93 94 95 87 88 93 100 100 98 99 99 99 97 98 97 100 100 99 99 99 100 100 99 99 98 96 89 70 53 42 31 19 12 13 15 16 16 16 16 16 17 20 27 34
96 95 91 84 80 76 69 70 89 99 100 100 100 100 100 99 98 98 98 98 99 91 77 67 60 50 38 26 17 14 14 19 24 28 28 27 27 26 24 22 20 19 20 25
96 96 97 97 96 88 89 85 88 84 83 91 95 96 100 93 89 87 82 74 65 54 44 35 27 19 16 20 27 28 29 32 37 37 36 37 38 40 40 37 32 25 21 21
96 94 91 100 100 100 100 100 100 98 92 88 84 80 71 68 64 59 49 38 26 18 17 22 30 34 34 32 34 31 37 38 38 37 36 39 44 47 49 48 45 40 32 24
98 98 100 100 100 96 96 100 99 93 73 58 53 50 39 31 28 28 28 32 38 38 38 38 40 40 35 36 34 40 40 37 36 36 36 37 40 46 53 55 54 52 46 33
99 99 98 98 97 99 98 91 85 81 75 76 69 59 60 61 60 64 66 68 71 69 65 65 69 68 61 57 61 58 53 49 47 46 45 43 40 43 50 58 60 60 57 47
99 100 99 88 82 86 98 100 100 100 100 100 99 89 89 84 85 86 86 85 86 84 81 80 82 83 77 77 78 73 70 66 62 58 54 51 48 46 52 62 66 67 67 59
69 78 76 68 81 77 72 80 90 98 99 100 100 98 96 97 96 94 94 94 96 93 89 88 96 97 92 92 94 90 84 80 77 72 68 62 58 55 57 65 75 78 77 69
100 97 70 74 63 60 54 67 76 83 92 93 98 92 97 93 96 96 97 97 98 98 97 96 100 100 100 100 100 96 92 89 86 82 77 71 63 61 64 70 81 82 80 75
100 80 62 53 52 68 72 76 81 86 79 89 96 91 91 88 92 94 93 94 96 98 98 97 100 100 100 100 100 100 96 92 89 84 80 75 69 67 75 78 85 90 86 78
78 50 42 47 61 91 100 92 79 81 89 86 89 96 91 91 93 96 99 99 100 100 97 94 93 94 100 100 100 100 99 99 94 92 90 81 72 71 75 90 95 93 89 84
49 45 35 46 55 65 70 63 67 72 76 80 82 83 88 87 85 91 96 100 100 100 100 100 100 96 100 100 100 97 97 97 98 98 91 82 82 84 87 87 89 94 100 90
41 46 50 50 55 59 66 67 63 65 70 74 87 100 100 100 96 88 84 90 100 100 100 100 100 100 100 99 96 99 100 100 100 100 94 89 85 90 95 96 94 90 96 91
46 55 60 61 62 64 72 80 81 80 83 83 84 83 86 92 94 95 99 100 100 100 99 100 100 100 100 98 100 98 96 98 98 93 92 98 100 99 97 92 95 94 90 77
62 60 59 56 59 58 68 85 90 93 93 94 93 95 97 97 96 96 91 89 93 88 95 100 100 100 100 100 100 100 97 92 99 100 100 97 97 100 100 100 99 99 94 69
74 73 71 68 63 64 76 86 88 91 93 95 96 98 100 100 99 96 97 99 100 99 97 96 99 94 97 100 100 100 100 100 100 100 100 100 100 100 100 100 100 100 83 68
68 63 62 63 68 77 88 90 91 96 97 93 92 92 96 100 100 100 100 100 100 97 95 100 100 100 100 100 100 99 93 96 100 100 100 100 100 100 100 100 100 96 78 73
60 70 78 79 83 91 93 94 96 99 100 99 94 91 95 100 99 95 94 98 100 100 100 100 100 100 100 100 100 100 100 100 100 100 100 100 100 100 100 100 99 86 80 76
66 82 87 88 92 98 96 94 97 94 97 99 93 94 100 100 100 99 96 91 94 100 100 100 99 99 92 100 100 96 89 86 100 98 100 100 100 100 100 100 94 85 76 73
76 77 82 87 92 90 96 98 96 94 96 91 95 99 96 95 92 92 100 100 100 100 100 99 82 99 100 100 94 100 100 100 100 100 95 100 100 100 100 100 99 95 89 84
76 76 78 83 86 88 99 94 89 91 89 89 96 96 96 97 100 94 91 99 100 100 99 99 100 99 100 84 79 82 96 100 100 100 99 98 100 100 100 100 100 100 97 88
74 75 73 78 86 91 86 81 81 80 88 94 94 100 94 91 98 100 100 100 100 100 100 100 100 100 90 91 92 95 100 100 100 100 98 97 95 91 94 94 96 95 90 79
72 78 70 72 84 87 86 84 83 78 85 93 95 93 98 100 100 100 100 100 100 100 100 100 100 98 97 97 96 95 93 91 89 87 89 92 93 88 86 88 91 93 85 64
54 69 72 73 83 88 87 89 96 98 91 98 98 97 100 100 100 100 100 100 100 100 100 100 100 100 100 100 100 99 98 95 94 95 96 96 93 90 90 90 90 87 69 50
48 58 66 76 80 82 90 99 100 98 99 96 99 100 100 100 100 100 100 100 100 100 100 99 96 98 100 100 100 100 100 100 98 97 95 92 90 89 88 86 82 70 55 43